Regional Weather Roundup
Issued by NWS Little Rock, AR

Home | Current Version | Previous Version | Text Only | Print | Product List | Glossary On
Versions: 1 2 3 4 5 6 7 8 9 10 11 12 13 14 15 16 17 18 19 20 21 22 23 24 25 26 27 28 29 30 31 32 33 34 35 36 37 38 39 40 41 42 43 44 45 46 47 48 49 50
000
ASUS44 KLZK 022205
RWRLZK

WEATHER ROUNDUP FOR ARKANSAS
NATIONAL WEATHER SERVICE LITTLE ROCK AR
500 PM CDT THU JUL 02 2015

NOTE: "FAIR" INDICATES FEW OR NO CLOUDS BELOW 12,000 FEET WITH NO
SIGNIFICANT WEATHER AND/OR OBSTRUCTIONS TO VISIBILITY.

ARZ001-003-010-029-022300-
NORTHWEST ARKANSAS

CITY           SKY/WX    TMP DP  RH WIND       PRES   REMARKS
FAYETTEVILLE   CLOUDY    82  74  76 SW12      29.88F THUNDER HX  88
FORT SMITH     PTSUNNY   89  68  49 SW15      29.86S HX  93
HARRISON       PTSUNNY   85  76  74 W6        29.86F HX  94
BENTONVILLE    PTSUNNY   84  72  65 W8        29.88F HX  89
ROGERS         PTSUNNY   83  74  74 W8        29.88F HX  89
SILOAM SPGS    CLOUDY    79  66  65 S14G22      N/A  THUNDER
HIGHFILL       CLOUDY    86  75  69 W7        29.88R HX  95
SPRINGDALE     LGT RAIN  77  72  83 SW14      29.91S
$$

ARZ004-005-016-022300-
NORTH CENTRAL ARKANSAS

CITY           SKY/WX    TMP DP  RH WIND       PRES   REMARKS
BATESVILLE     PTSUNNY   86  73  66 SW8G16    29.83F HX  93
FLIPPIN          N/A     86  73  66 NW6       29.82F HX  93
MTN HOME       PTSUNNY   84  75  74 VRB5      29.84F HX  92
$$

ARZ040-041-022300-
WEST CENTRAL ARKANSAS

CITY           SKY/WX    TMP DP  RH WIND       PRES   REMARKS
MENA           PTSUNNY   86  70  58 SW7G18    29.93F HX  90
MOUNT IDA      MOSUNNY   87  68  52 VRB7      29.89F HX  90
$$

ARZ009-017-025-026-028-022300-
NORTHEAST ARKANSAS

CITY           SKY/WX    TMP DP  RH WIND       PRES   REMARKS
JONESBORO      PTSUNNY   85  74  69 SW10      29.81F HX  92
NEWPORT        PTSUNNY   90  75  61 SW12      29.83F HX 100
WALNUT RIDGE   CLOUDY    79  75  89 W5G22     29.82R THUNDER
BLYTHEVILLE    CLOUDY    84  73  69 SW10      29.84F HX  90
$$

ARZ022-023-033-042-044-022300-
CENTRAL ARKANSAS

CITY           SKY/WX    TMP DP  RH WIND       PRES   REMARKS
LITTLE ROCK    PTSUNNY   92  65  40 SW18G28   29.86F HX  94
N LITTLE ROCK  PTSUNNY   89  72  56 SW10G23   29.86F HX  95
JACKSONVILLE   MOSUNNY   91  69  48 SW17      29.85F HX  96
SEARCY         PTSUNNY   88  73  61 SW7       29.85F HX  95
HOT SPRINGS    MOSUNNY   88  68  51 SW16G24   29.90F HX  91
RUSSELLVILLE   PTSUNNY   90  72  55 SW6       29.84F HX  97
CLINTON        FAIR      90  75  62 W9        29.85F HX 100
$$

ARZ036-022300-
EAST ARKANSAS

CITY           SKY/WX    TMP DP  RH WIND       PRES   REMARKS
WEST MEMPHIS   PTSUNNY   86  72  62 SW14G20   29.85F HX  92
$$

ARZ050-053-066-070-073-022300-
SOUTHWEST ARKANSAS

CITY           SKY/WX    TMP DP  RH WIND       PRES   REMARKS
ARKADELPHIA    FAIR      91  72  53 SW15      29.90F HX  98
CAMDEN         MOSUNNY   90  68  48 MISG      29.92F HX  93
TEXARKANA      PTSUNNY   88  70  55 SW14      29.93F HX  93
EL DORADO      MOSUNNY   89  71  55 SW15G25   29.94F HX  95
DE QUEEN       CLOUDY    87  72  60 SW12      29.90F HX  93
$$

ARZ056-057-069-022300-
SOUTHEAST ARKANSAS

CITY           SKY/WX    TMP DP  RH WIND       PRES   REMARKS
PINE BLUFF     MOSUNNY   90  68  48 SW15G21   29.89F HX  94
STUTTGART      PTSUNNY   91  70  49 MISG      29.86F HX  97
MONTICELLO     MOSUNNY   91  72  53 SW10      29.92F HX  98

$$





USA.gov is the U.S. government's official web portal to all federal, state and local government web resources and services.